{"data":{"norad_id":55093,"epoch":"2026-05-25T03:25:05.395584Z","epoch_age_seconds":70339,"freshness":"FRESH","line1":"1 55093U 23001CN  26145.14242356  .00008312  00000+0  21278-3 0  9999","line2":"2 55093  97.3261 212.3196 0010453 157.3601 202.8108 15.39607411188827","mean_motion":15.39607411,"eccentricity":0.0010453,"inclination_deg":97.3261,"raan_deg":212.3196,"arg_perigee_deg":157.3601,"mean_anomaly_deg":202.8108,"bstar":0.00021278,"rev_number":18882,"period_min":93.530337000956,"perigee_km":440.13476111146,"apogee_km":454.40395564429,"semimajor_km":6825.4063583779,"source":"CELESTRAK","updated_at":"2026-05-25T13:37:58.814925Z"}}